SCP
7 7 6 6 5 12 18 11 3 3 3 3 3 3 3 3 3 2 2 2 3 3 3 2 2 2 2 2 2 2 1 1 1 1 1 1 2 2 2 2 3 3 2
7 7 6 5 5 8 10 7 3 3 3 3 3 3 3 3 3 3 3 3 3 3 3 3 2 2 2 2 2 2 1 1 1 1 1 1 1 1 2 2 2 2 2
7 7 6 5 5 5 5 4 4 4 4 3 3 3 3 4 4 4 4 3 3 3 3 3 3 2 2 2 2 1 1 1 1 1 1 1 1 1 1 1 1 1 1
7 7 6 6 5 5 5 4 4 4 4 4 3 3 3 4 4 4 4 4 3 3 3 3 2 2 2 1 1 1 1 1 1 1 1 1 1 1 1 1 1 1 1
8 7 7 6 6 6 5 5 4 4 4 4 4 3 3 3 3 3 4 3 3 3 2 2 2 1 1 1 1 1 1 1 1 1 1 1 1 1 1 1 1 1 1
8 7 7 6 6 6 5 5 4 5 5 5 4 4 3 3 2 2 3 3 3 2 2 2 1 1 1 1 1 1 1 1 1 1 2 2 2 1 1 1 1 1 1
8 8 7 7 7 6 6 5 5 5 5 5 5 5 4 3 2 1 2 3 3 2 2 1 1 1 1 1 1 0 0 0 1 1 2 2 2 1 1 1 1 1 1
9 8 7 7 7 7 6 5 5 6 6 6 6 6 5 3 2 1 2 3 3 2 2 1 1 1 1 1 1 1 1 0 0 1 1 1 1 1 1 1 1 0 1
8 8 7 7 6 6 6 6 6 6 6 6 6 6 5 3 2 1 2 3 3 2 2 2 1 1 1 1 1 1 1 1 0 0 0 0 1 0 0 0 0 0 0
8 8 7 7 6 6 6 6 6 7 7 7 6 5 5 3 2 2 2 3 3 3 3 2 2 1 1 1 1 1 1 1 1 0 0 0 0 0 0 0 0 0 0
8 8 8 7 6 6 6 6 6 7 7 7 6 5 5 4 3 2 2 2 3 3 3 3 2 1 1 0 0 1 1 1 1 1 1 1 0 0 0 0 0 0 0
8 8 7 7 6 6 6 6 6 6 6 5 5 5 5 4 3 2 1 1 2 2 2 2 2 1 0 0 0 0 0 0 0 0 1 1 0 0 0 0 0 0 0
8 7 7 7 6 6 5 6 6 5 4 4 4 3 3 3 2 1 1 0 0 1 1 1 1 1 0 0 0 0 0 0 0 0 0 0 0 0 0 0 0 0 0
7 6 7 7 7 6 6 6 5 4 3 2 2 2 1 1 1 0 0 0 0 0 0 0 0 0 0 0 0 0 0 0 0 0 0 0 0 0 0 0 0 0 0
5 5 6 6 6 7 6 6 5 4 2 1 1 1 1 0 0 0 0 0 0 0 0 0 0 0 0 0 0 0 0 0 0 0 0 0 0 0 0 0 0 0 0
4 5 5 5 6 6 6 4 3 2 1 1 0 0 0 0 0 0 0 0 0 0 0 0 0 0 0 0 0 0 0 0 0 0 0 0 0 0 0 0 0 0 0
3 4 5 5 6 6 5 3 1 1 0 0 0 0 0 0 0 0 0 0 0 0 0 0 0 0 0 0 0 0 0 0 0 0 0 0 0 0 0 0 0 0 0
2 3 4 5 6 5 4 2 1 0 0 0 0 0 0 0 0 0 0 0 0 0 0 0 0 0 0 0 0 0 0 0 0 0 0 0 0 0 0 0 0 0 0
2 3 3 5 5 4 2 1 0 0 0 0 0 0 0 0 0 0 0 0 0 0 0 0 0 0 0 0 0 0 0 0 0 0 0 0 0 0 0 0 0 0 0
2 2 3 3 4 2 1 0 0 0 0 0 0 0 0 0 0 0 0 0 0 0 0 0 0 0 0 0 0 0 0 0 0 0 0 0 0 0 0 0 0 0 0
1 1 2 2 2 1 1 0 0 0 0 0 0 0 0 0 0 0 0 0 0 0 0 0 0 0 0 0 0 0 0 0 0 0 0 0 0 0 0 0 0 0 0
1 1 1 1 1 1 0 0 0 0 0 0 0 0 0 0 0 0 0 0 0 0 0 0 0 0 0 0 0 0 0 0 0 0 0 0 0 0 0 0 0 0 0
1 1 1 1 0 0 0 0 0 0 0 0 0 0 0 0 0 0 0 0 0 0 0 0 0 0 0 0 0 0 0 0 0 0 0 0 0 0 0 0 0 0 0
1 1 1 0 0 0 0 0 0 0 0 0 0 0 0 0 0 0 0 0 0 0 0 0 0 0 0 0 0 0 0 0 0 0 0 0 0 0 0 0 0 0 0
1 0 0 0 0 0 0 0 0 0 0 0 0 0 0 0 0 0 0 0 0 0 0 0 0 0 0 0 0 0 0 0 0 0 0 0 0 0 0 0 0 0 0
0 0 0 0 0 0 0 0 0 0 0 0 0 0 0 0 0 0 0 0 0 0 0 0 0 0 0 0 0 0 0 0 0 0 0 0 0 0 0 0 0 0 0
Wind_Speed
8 7 5 6 6 5 4 3 3 3 3 2 3 3 3 3 2 2 2 2 3 3 3 3 3 3 2 2 2 2 2 2 4 3 1 1 0 0 1 0 1 2 3
7 6 5 4 4 4 4 3 3 3 2 2 2 2 2 2 2 2 2 1 1 1 1 1 2 1 1 1 1 1 1 1 2 3 2 1 1 0 1 1 1 1 2
6 6 4 3 3 3 3 3 3 2 2 2 2 2 1 1 1 1 0 0 1 0 1 1 1 1 1 1 1 1 1 1 1 1 1 1 1 1 1 1 1 0 1
5 5 4 3 3 3 2 2 2 2 2 2 2 2 2 1 2 2 1 1 2 2 2 2 2 3 2 2 1 2 2 1 1 1 1 1 1 1 1 1 1 1 1
5 5 4 4 3 3 3 3 3 3 3 3 2 2 2 2 2 2 2 2 3 3 4 4 6 8 8 5 3 3 2 2 2 2 2 2 2 2 2 2 1 1 1
5 5 5 4 4 3 3 4 3 3 4 4 4 4 4 3 4 5 3 3 3 4 4 5 5 7 9 10 10 10 8 4 3 3 3 3 3 3 3 2 2 1 1
6 6 5 5 4 4 4 5 5 5 5 5 5 5 6 6 7 7 6 4 5 5 5 4 5 6 6 6 7 8 9 10 7 4 4 3 3 4 3 3 3 2 2
6 6 5 6 5 5 6 6 5 5 5 5 6 6 6 7 8 7 6 5 6 7 7 6 6 6 6 5 6 6 7 7 6 5 4 4 4 4 3 2 1 1 2
6 6 6 6 6 6 6 6 5 6 6 6 6 6 6 6 8 7 5 5 6 7 7 8 7 6 8 7 5 5 5 5 6 7 5 4 6 8 7 4 4 2 2
7 7 7 6 6 7 7 7 6 6 6 6 7 7 7 7 8 8 6 4 5 5 6 7 10 8 8 7 4 4 4 3 3 3 3 3 3 5 8 6 4 3 3
8 7 7 7 7 7 7 6 6 6 7 7 7 7 7 7 8 9 8 4 5 5 5 5 5 8 8 7 5 3 3 1 1 2 3 3 3 4 5 5 5 4 3
8 8 7 6 6 6 6 6 6 6 7 6 6 6 6 6 7 9 10 9 7 5 5 4 4 6 6 5 4 5 5 4 2 2 3 3 3 3 3 3 3 2 2
8 7 7 7 6 6 5 5 5 4 5 5 5 5 5 5 6 10 10 9 8 5 4 5 4 4 3 4 5 6 5 3 3 3 4 3 2 2 2 2 1 2 2
8 7 6 7 7 7 6 5 5 4 4 4 4 5 5 5 4 4 4 5 6 5 4 4 3 3 3 4 4 3 3 4 4 3 3 2 2 2 3 2 2 2 2
8 6 6 7 9 9 9 8 8 7 6 5 5 5 5 5 4 4 3 3 3 3 2 2 2 2 3 2 3 3 3 3 4 3 3 3 3 3 3 3 3 3 3
6 5 5 6 7 8 8 9 15 12 14 14 11 8 7 7 5 6 7 6 5 4 3 3 3 3 3 3 3 3 3 4 3 3 3 3 3 3 3 3 3 3 3
5 5 5 6 6 7 7 7 7 9 13 13 12 11 9 7 6 6 5 5 4 3 3 3 3 3 3 3 3 4 4 4 3 3 3 3 3 3 3 2 3 3 2
6 5 5 5 5 6 6 7 7 7 7 6 6 7 6 5 4 4 3 2 2 2 2 3 3 3 4 4 3 3 3 3 3 3 3 3 3 2 2 2 2 3 3
5 4 4 5 5 5 6 6 6 7 7 6 5 3 2 2 2 2 2 2 3 3 3 4 4 4 4 4 3 3 3 3 3 3 3 3 3 3 2 3 2 3 3
4 5 4 4 5 5 5 6 6 6 6 5 5 4 3 3 3 3 2 2 3 4 4 4 4 4 4 3 3 3 3 3 3 3 3 3 3 3 3 3 3 3 3
5 5 5 4 4 5 5 6 6 6 6 6 5 4 3 2 4 4 4 3 4 4 4 3 3 4 4 3 3 3 4 4 4 4 3 3 3 3 3 3 3 3 3
5 5 4 4 4 5 5 5 5 6 7 7 6 5 4 2 3 4 4 3 4 3 3 3 4 4 4 4 4 4 5 5 5 5 4 4 3 3 4 4 4 3 3
5 6 6 5 5 5 5 5 5 6 6 6 6 5 4 3 3 3 4 4 3 3 3 3 4 5 5 4 5 5 5 5 5 5 5 5 4 4 4 4 4 4 4
5 6 6 5 5 4 5 4 5 5 5 6 5 5 4 3 3 3 3 3 3 3 3 4 4 6 7 5 5 6 6 5 5 5 7 6 5 4 4 4 4 5 4
5 5 5 5 5 4 5 5 5 5 5 5 5 4 4 4 3 3 3 3 4 3 4 4 3 5 6 7 7 6 5 6 6 6 5 5 6 5 5 5 4 4 4
5 5 5 4 4 5 5 5 5 5 4 4 4 3 3 3 3 3 3 3 3 3 3 3 5 6 5 6 8 6 4 4 5 6 5 5 5 5 5 5 6 5 5
Wind_Direction
188 191 195 193 198 200 199 205 204 208 212 205 189 207 212 215 214 219 232 226 227 237 241 228 236 249 253 259 255 244 239 236 253 275 278 300 359 65 109 139 150 141 139
179 178 186 186 182 186 193 200 198 199 197 190 174 180 185 194 196 200 226 223 219 232 243 241 257 256 254 281 295 296 269 239 241 271 292 309 317 285 208 210 236 187 138
166 169 174 173 168 177 185 181 181 178 173 160 139 138 158 171 152 133 159 165 139 84 36 54 357 23 22 17 6 340 321 301 234 251 298 326 333 337 331 297 274 268 194
153 158 153 147 148 156 150 140 145 153 152 138 130 133 131 126 113 109 110 89 77 70 59 54 51 54 37 33 34 13 8 15 33 39 1 355 348 338 338 319 317 318 327
135 136 132 128 127 128 127 124 122 125 125 115 117 104 95 88 72 82 102 97 89 82 71 64 64 70 61 51 49 27 18 29 35 39 31 22 7 358 342 324 324 356 21
125 122 120 122 120 119 114 105 103 97 93 95 91 83 75 71 54 59 67 72 75 75 70 67 76 72 67 63 59 52 49 49 41 40 40 32 13 359 345 344 341 350 339
112 111 115 115 114 109 108 99 94 90 87 84 83 85 80 55 53 62 64 71 70 65 63 56 58 60 61 61 59 57 54 52 58 65 58 36 22 4 358 13 16 7 355
105 101 100 104 101 97 96 93 90 87 83 80 78 78 76 56 48 54 62 76 75 69 62 55 58 52 45 54 61 59 56 48 53 67 65 51 41 17 3 1 8 30 57
100 97 92 94 97 97 97 94 90 89 86 83 82 80 77 59 44 49 66 85 81 74 66 59 59 56 37 52 69 70 68 61 61 71 81 72 51 38 25 20 15 35 42
93 91 92 94 95 93 95 96 93 92 90 86 78 71 73 65 46 50 64 94 91 83 75 68 60 55 42 48 68 71 68 55 56 63 68 59 54 46 39 35 25 24 32
94 90 90 91 94 95 98 99 100 98 94 89 84 76 70 65 58 53 58 76 87 87 82 72 57 52 52 48 51 61 63 41 57 74 77 63 56 51 44 42 39 38 46
97 96 95 91 91 96 101 101 104 109 106 100 94 85 72 62 58 60 64 67 75 82 83 82 74 61 59 52 49 33 23 12 30 62 63 56 48 49 48 47 47 52 75
97 95 94 89 83 88 96 102 108 111 107 105 101 95 88 80 71 69 70 72 75 82 85 94 93 76 67 66 53 37 27 19 34 54 55 51 45 40 51 48 46 49 58
103 99 97 95 88 73 67 68 67 64 84 96 93 93 89 77 66 63 80 85 90 90 99 108 102 66 63 64 51 40 41 36 39 50 50 45 42 41 34 27 28 26 42
107 107 104 93 87 76 64 49 59 51 46 67 76 80 91 84 48 43 65 63 60 67 86 100 91 84 77 72 67 57 52 44 41 37 39 37 37 44 41 27 18 18 30
121 123 118 113 109 105 98 79 54 62 62 64 71 87 82 90 90 70 62 54 50 52 66 91 84 76 73 69 65 62 55 42 33 39 38 33 29 33 33 28 19 16 24
120 119 118 119 122 122 120 115 104 75 63 61 65 78 91 95 81 66 56 40 26 36 57 68 71 65 61 58 56 57 56 43 26 34 35 29 22 26 30 22 18 9 8
121 120 122 123 127 129 130 129 128 124 111 89 68 70 85 85 70 47 33 30 60 63 62 67 72 68 61 54 51 54 59 51 33 31 31 20 13 19 21 16 28 11 352
119 119 115 119 122 122 126 126 123 119 118 120 121 104 98 113 75 32 23 42 61 67 67 67 69 67 65 58 45 49 58 53 29 27 31 8 5 11 11 6 20 9 348
99 98 110 120 121 124 122 118 115 117 120 121 119 122 144 161 134 105 81 52 54 57 59 63 62 66 67 60 48 42 52 51 26 26 25 2 5 4 358 4 11 360 360
125 125 129 120 111 113 117 120 122 127 125 121 119 122 131 127 103 94 85 71 65 61 53 52 58 64 65 60 49 41 45 44 30 18 12 3 3 357 349 4 8 3 5
132 136 132 118 113 115 119 124 128 127 125 125 129 126 117 105 93 92 92 87 81 78 71 60 58 59 56 52 47 42 38 34 26 14 4 358 358 353 357 3 359 356 2
135 132 123 117 120 126 133 129 125 124 127 129 127 128 129 116 103 95 91 86 78 75 72 66 65 65 56 51 53 51 43 32 13 6 358 349 348 351 353 352 345 354 360
126 126 126 129 132 135 124 117 117 122 124 121 122 125 125 121 111 103 101 98 92 81 72 67 70 75 68 59 59 58 47 28 6 4 354 337 337 349 349 343 342 350 350
126 129 133 132 130 126 121 116 115 117 115 117 121 123 125 123 116 111 109 103 95 91 91 85 81 81 78 75 73 70 60 45 31 2 342 332 334 343 342 335 338 337 343
126 132 129 124 124 124 121 124 126 125 122 121 122 126 131 132 128 120 114 111 113 110 106 102 96 97 96 89 90 91 80 48 21 356 332 319 324 337 341 332 335 337 338